TimeEDT,TemperatureF,Dew PointF,Humidity,Sea Level PressureIn,VisibilityMPH,Wind Direction,Wind SpeedMPH,Gust SpeedMPH,PrecipitationIn,Events,Conditions,WindDirDegrees,DateUTC
12:15 AM,73.4,-9999,N/A,30.12,10.0,East,4.6,-,N/A,,Clear,100,2013-07-15 04:15:00
12:35 AM,73.4,-9999,N/A,30.12,10.0,Calm,Calm,-,N/A,,Clear,0,2013-07-15 04:35:00
12:55 AM,73.4,-9999,N/A,30.12,10.0,Calm,Calm,-,N/A,,Scattered Clouds,0,2013-07-15 04:55:00
1:15 AM,73.4,-9999,N/A,30.12,7.0,East,3.5,-,N/A,,Mostly Cloudy,90,2013-07-15 05:15:00
1:35 AM,73.4,-9999,N/A,30.12,10.0,ESE,3.5,-,N/A,,Overcast,110,2013-07-15 05:35:00
1:55 AM,73.4,-9999,N/A,30.12,10.0,East,4.6,-,N/A,,Mostly Cloudy,100,2013-07-15 05:55:00
2:15 AM,73.4,-9999,N/A,30.12,10.0,East,3.5,-,N/A,,Scattered Clouds,100,2013-07-15 06:15:00
2:35 AM,73.4,-9999,N/A,30.11,10.0,East,3.5,-,N/A,,Clear,100,2013-07-15 06:35:00
2:55 AM,73.4,-9999,N/A,30.11,10.0,East,3.5,-,N/A,,Scattered Clouds,100,2013-07-15 06:55:00
3:15 AM,73.4,-9999,N/A,30.11,10.0,East,3.5,-,N/A,,Scattered Clouds,90,2013-07-15 07:15:00
3:35 AM,73.4,-9999,N/A,30.11,10.0,Calm,Calm,-,N/A,,Clear,0,2013-07-15 07:35:00
3:55 AM,73.4,-9999,N/A,30.11,7.0,Calm,Calm,-,N/A,,Mostly Cloudy,0,2013-07-15 07:55:00
4:15 AM,73.4,-9999,N/A,30.11,10.0,East,4.6,-,N/A,,Overcast,100,2013-07-15 08:15:00
4:35 AM,73.4,-9999,N/A,30.11,10.0,East,4.6,-,N/A,,Overcast,90,2013-07-15 08:35:00
4:55 AM,73.4,-9999,N/A,30.11,10.0,ENE,4.6,-,0.01,,Mostly Cloudy,70,2013-07-15 08:55:00
5:15 AM,73.4,-9999,N/A,30.11,10.0,East,3.5,-,N/A,,Overcast,80,2013-07-15 09:15:00
5:35 AM,73.4,-9999,N/A,30.11,10.0,East,4.6,-,N/A,,Overcast,80,2013-07-15 09:35:00
5:55 AM,73.4,-9999,N/A,30.11,10.0,ENE,4.6,-,N/A,,Mostly Cloudy,70,2013-07-15 09:55:00
6:15 AM,73.4,-9999,N/A,30.11,10.0,ENE,4.6,-,N/A,,Scattered Clouds,70,2013-07-15 10:15:00
6:35 AM,73.4,-9999,N/A,30.11,10.0,ENE,3.5,-,N/A,,Clear,70,2013-07-15 10:35:00
6:55 AM,73.4,-9999,N/A,30.12,5.0,Calm,Calm,-,N/A,,Haze,0,2013-07-15 10:55:00
7:15 AM,73.4,-9999,N/A,30.12,5.0,Calm,Calm,-,N/A,,Haze,0,2013-07-15 11:15:00
7:35 AM,75.2,-9999,N/A,30.13,7.0,Calm,Calm,-,N/A,,Clear,0,2013-07-15 11:35:00
7:55 AM,75.2,-9999,N/A,30.13,10.0,Calm,Calm,-,N/A,,Clear,0,2013-07-15 11:55:00
8:15 AM,77.0,-9999,N/A,30.13,10.0,East,4.6,-,N/A,,Clear,80,2013-07-15 12:15:00
8:35 AM,77.0,-9999,N/A,30.14,10.0,ENE,4.6,-,N/A,,Clear,70,2013-07-15 12:35:00
8:55 AM,78.8,-9999,N/A,30.14,10.0,ENE,4.6,-,N/A,,Clear,70,2013-07-15 12:55:00
9:15 AM,80.6,-9999,N/A,30.14,10.0,East,4.6,-,N/A,,Clear,80,2013-07-15 13:15:00
9:35 AM,82.4,75.2,79,30.14,10.0,Calm,Calm,-,N/A,,Scattered Clouds,0,2013-07-15 13:35:00
9:55 AM,82.4,73.4,74,30.14,10.0,East,6.9,-,N/A,,Scattered Clouds,80,2013-07-15 13:55:00
10:15 AM,82.4,73.4,74,30.14,10.0,East,4.6,-,N/A,,Scattered Clouds,90,2013-07-15 14:15:00
10:35 AM,84.2,73.4,70,30.15,10.0,ENE,6.9,-,N/A,,Scattered Clouds,70,2013-07-15 14:35:00
10:55 AM,84.2,73.4,70,30.14,10.0,NE,5.8,-,N/A,,Scattered Clouds,50,2013-07-15 14:55:00
11:15 AM,86.0,71.6,62,30.14,10.0,East,5.8,-,N/A,,Scattered Clouds,90,2013-07-15 15:15:00
11:35 AM,86.0,71.6,62,30.15,10.0,East,5.8,-,N/A,,Scattered Clouds,90,2013-07-15 15:35:00
11:55 AM,87.8,71.6,58,30.14,10.0,ENE,5.8,-,N/A,,Scattered Clouds,70,2013-07-15 15:55:00
12:15 PM,86.0,69.8,58,30.14,10.0,NE,3.5,-,N/A,,Scattered Clouds,40,2013-07-15 16:15:00
12:35 PM,87.8,69.8,55,30.13,10.0,NNE,4.6,-,N/A,,Mostly Cloudy,20,2013-07-15 16:35:00
12:55 PM,87.8,68.0,52,30.12,10.0,Calm,Calm,-,N/A,,Scattered Clouds,0,2013-07-15 16:55:00
1:15 PM,89.6,68.0,49,30.12,10.0,East,4.6,-,N/A,,Scattered Clouds,90,2013-07-15 17:15:00
1:35 PM,87.8,69.8,55,30.11,10.0,NE,3.5,-,N/A,,Mostly Cloudy,50,2013-07-15 17:35:00
1:55 PM,89.6,68.0,49,30.11,10.0,Calm,Calm,-,N/A,,Mostly Cloudy,0,2013-07-15 17:55:00
2:15 PM,89.6,68.0,49,30.10,10.0,Calm,Calm,-,N/A,,Mostly Cloudy,0,2013-07-15 18:15:00
2:35 PM,89.6,68.0,49,30.10,10.0,Calm,Calm,-,N/A,,Mostly Cloudy,0,2013-07-15 18:35:00
2:55 PM,89.6,68.0,49,30.09,10.0,NW,3.5,-,N/A,,Scattered Clouds,310,2013-07-15 18:55:00
3:15 PM,89.6,68.0,49,30.08,10.0,North,6.9,-,N/A,,Mostly Cloudy,10,2013-07-15 19:15:00
3:35 PM,84.2,71.6,66,30.08,10.0,NE,9.2,20.7,N/A,,Overcast,40,2013-07-15 19:35:00
3:55 PM,82.4,73.4,74,30.09,10.0,NNE,11.5,-,N/A,,Overcast,20,2013-07-15 19:55:00
4:15 PM,82.4,73.4,74,30.08,10.0,North,9.2,-,N/A,,Mostly Cloudy,10,2013-07-15 20:15:00
4:35 PM,82.4,73.4,74,30.07,10.0,North,3.5,-,N/A,,Scattered Clouds,10,2013-07-15 20:35:00
4:55 PM,84.2,73.4,70,30.07,10.0,NNE,6.9,-,N/A,,Scattered Clouds,20,2013-07-15 20:55:00
5:15 PM,84.2,75.2,74,30.07,10.0,NNE,6.9,-,N/A,,Clear,20,2013-07-15 21:15:00
5:35 PM,84.2,75.2,74,30.05,10.0,NE,6.9,-,N/A,,Clear,40,2013-07-15 21:35:00
5:55 PM,82.4,73.4,74,30.06,10.0,NNE,9.2,-,N/A,,Clear,30,2013-07-15 21:55:00
6:15 PM,82.4,75.2,79,30.06,10.0,NE,8.1,-,N/A,,Mostly Cloudy,40,2013-07-15 22:15:00
6:35 PM,82.4,75.2,79,30.06,10.0,NE,4.6,-,N/A,,Scattered Clouds,40,2013-07-15 22:35:00
6:55 PM,82.4,73.4,74,30.06,10.0,NE,5.8,-,N/A,,Scattered Clouds,50,2013-07-15 22:55:00
7:15 PM,82.4,75.2,79,30.06,10.0,ENE,5.8,-,N/A,,Scattered Clouds,60,2013-07-15 23:15:00
7:35 PM,82.4,73.4,74,30.06,10.0,ENE,6.9,-,N/A,,Scattered Clouds,60,2013-07-15 23:35:00
7:55 PM,82.4,73.4,74,30.07,10.0,East,4.6,-,N/A,,Mostly Cloudy,100,2013-07-15 23:55:00
8:15 PM,80.6,73.4,79,30.07,10.0,ESE,3.5,-,N/A,,Scattered Clouds,110,2013-07-16 00:15:00
8:35 PM,80.6,73.4,79,30.08,10.0,ENE,3.5,-,N/A,,Clear,70,2013-07-16 00:35:00
8:55 PM,80.6,73.4,79,30.07,10.0,ENE,3.5,-,N/A,,Clear,70,2013-07-16 00:55:00
9:15 PM,80.6,75.2,84,30.09,10.0,ENE,4.6,-,N/A,,Scattered Clouds,70,2013-07-16 01:15:00
9:35 PM,80.6,75.2,84,30.10,10.0,East,3.5,-,N/A,,Mostly Cloudy,80,2013-07-16 01:35:00
9:55 PM,80.6,75.2,84,30.12,10.0,East,4.6,-,N/A,,Scattered Clouds,100,2013-07-16 01:55:00
11:15 PM,78.8,73.4,83,30.14,10.0,East,6.9,-,N/A,,Clear,100,2013-07-16 03:15:00
11:35 PM,78.8,75.2,89,30.14,10.0,East,5.8,-,N/A,,Clear,100,2013-07-16 03:35:00
11:55 PM,78.8,75.2,89,30.14,10.0,East,4.6,-,N/A,,Scattered Clouds,100,2013-07-16 03:55:00